This is the latest recevied weather packets stored in our database for station/object AB8Y-13. If no packets are shown the sender has not sent any weather packets the latest 10 day(s).
| Time | Temp. | Humidity | Pressure | Rain* | Wind** | Luminosity | Snow |
|---|---|---|---|---|---|---|---|
| 1777816703 | 12.78° C | 44% | 1012.1 hPa | 0 mm | - | 386 W/m² | - |
| 1777816400 | 12.78° C | 43% | 1012.1 hPa | 0 mm | - | 425 W/m² | - |
| 1777816098 | 12.22° C | 45% | 1012.1 hPa | 0 mm | - | 424 W/m² | - |
| 1777815795 | 12.22° C | 45% | 1012.4 hPa | 0 mm | - | 415 W/m² | - |
| 1777815493 | 12.22° C | 44% | 1012.4 hPa | 0 mm | - | 481 W/m² | - |
| 1777815190 | 11.67° C | 46% | 1012.3 hPa | 0 mm | - | 401 W/m² | - |
| 1777814886 | 11.11° C | 45% | 1012.2 hPa | 0 mm | - | 371 W/m² | - |
| 1777814583 | 10.56° C | 47% | 1012.7 hPa | 0 mm | - | 228 W/m² | - |
| 1777814280 | 11.11° C | 45% | 1012.1 hPa | 0 mm | - | 190 W/m² | - |
| 1777813976 | 10.56° C | 46% | 1012.4 hPa | 0 mm | - | 255 W/m² | - |
| 1777813674 | 10.56° C | 50% | 1012.6 hPa | 0 mm | - | 249 W/m² | - |
| 1777813371 | 10.56° C | 48% | 1012.6 hPa | 0 mm | - | 209 W/m² | - |
| 1777813069 | 10.56° C | 48% | 1012.6 hPa | 0 mm | - | 239 W/m² | - |
| 1777812767 | 10.56° C | 52% | 1012.7 hPa | 0 mm | - | 254 W/m² | - |
| 1777812462 | 10° C | 50% | 1012.4 hPa | 0 mm | - | 321 W/m² | - |
| 1777812161 | 9.44° C | 52% | 1012.6 hPa | 0 mm | - | 279 W/m² | - |
| 1777811858 | 8.89° C | 51% | 1012.7 hPa | 0 mm | - | 266 W/m² | - |
| 1777811557 | 8.89° C | 50% | 1012.6 hPa | 0 mm | - | 250 W/m² | - |
| 1777811252 | 8.89° C | 52% | 1012.6 hPa | 0 mm | - | 224 W/m² | - |
| 1777810950 | 8.33° C | 54% | 1012.6 hPa | 0 mm | - | 226 W/m² | - |
| 1777810645 | 7.78° C | 52% | 1012.8 hPa | 0 mm | - | 186 W/m² | - |
| 1777810343 | 7.78° C | 55% | 1012.4 hPa | 0 mm | - | 177 W/m² | - |
| 1777810039 | 7.22° C | 56% | 1012.8 hPa | 0 mm | - | 170 W/m² | - |
| 1777809737 | 6.67° C | 58% | 1012.7 hPa | 0 mm | - | 137 W/m² | - |
| 1777809434 | 6.67° C | 57% | 1012.8 hPa | 0 mm | - | 99 W/m² | - |
* Rain latest hour (hover to see other rain measurements)
** Current wind speed in m/s (hover to see current wind gust speed)